Regional Weather Roundup
Issued by NWS Sioux Falls, SD

Home | Current Version | Previous Version | Graphics & Text | Print | Product List | Glossary Off
Versions: 1 2 3 4 5 6 7 8 9 10 11 12 13 14 15 16 17 18 19 20 21 22 23 24 25 26 27 28 29 30 31 32 33 34 35 36 37 38 39 40 41 42 43 44 45 46 47 48 49 50

000
ASUS43 KFSD 221810
RWRFSD

WEATHER ROUNDUP FOR SE SOUTH DAKOTA/SW MINNESOTA/NW IOWA
NATIONAL WEATHER SERVICE SIOUX FALLS SD
1200 PM CST MON JAN 22 2018

NOTE: "FAIR" INDICATES FEW OR NO CLOUDS BELOW 12,000 FEET WITH NO
SIGNIFICANT WEATHER AND OR OBSTRUCTIONS TO VISIBILITY.


SDZ038>040-050-052>070-221900-
SOUTHEAST SOUTH DAKOTA

CITY           SKY/WX    TMP DP  RH WIND       PRES   REMARKS
BROOKINGS      FLURRIES  25  23  92 N25G31    29.76S WCI   9
CHAMBERLAIN    CLOUDY    26  25  96 NW18G25   29.90S WCI  12
6HR MIN TEMP:  24; 6HR MAX TEMP:  26;

HURON          CLOUDY    22  22 100 N23G33    29.88F FOG     WCI   6
6HR MIN TEMP:  21; 6HR MAX TEMP:  22; 6HR PCP: TRACE;

MADISON        LGT RAIN  25  25 100 N30       29.76S WCI   8
MITCHELL       MIX PCPN  24  22  91 N23G31    29.86S FOG     WCI   9
6HR MIN TEMP:  23; 6HR MAX TEMP:  25; 6HR PCP: TRACE;

SIOUX FALLS    CLOUDY    27  25  92 N25G36    29.75R WCI  12
6HR MIN TEMP:  26; 6HR MAX TEMP:  28; 6HR PCP: TRACE;

WINNER         MIX PCPN  25  21  85 NW16      29.92R FOG     WCI  12
YANKTON        SNOW      25  23  92 MISG      29.75F VSB 1/2
$$

MNZ071-072-080-081-089-090-097-098-221900-
SOUTHWEST MINNESOTA

CITY           SKY/WX    TMP DP  RH WIND       PRES   REMARKS
FAIRMONT       HVY SNOW  30  29  96 N23G31    29.61R VSB 1/4 WCI  17
JACKSON        CLOUDY    28  27  93 VRB31G38  29.62S VSB 1/2 WCI  12
LUVERNE        CLOUDY    28  27  93 N16G28    29.71R WCI  17
MARSHALL       CLOUDY    28  25  88 N21       29.76F WCI  15
6HR MIN TEMP:  26; 6HR MAX TEMP:  29; 6HR PCP: TRACE;

MONTEVIDEO     CLOUDY    28  25  86 NE25G32   29.79F WCI  14
PIPESTONE      CLOUDY    25  23  93 NE23G33   29.72R WCI  10
REDWOOD FALLS  LGT SNOW  29  26  89 N15G25    29.73F VSB 3/4 WCI  18
TRACY          CLOUDY    29  28  96 N23G31    29.73R WCI  15
WINDOM         CLOUDY    28  16  59 N29G36    29.65R WCI  13
WORTHINGTON    HVY SNOW  27  26  96 N26G32    29.65R VSB 1/4 WCI  12
$$

IAZ001>003-012>014-020>022-031-032-NEZ013-014-SDZ071-221900-
NORTHWEST IOWA

CITY           SKY/WX    TMP DP  RH WIND       PRES   REMARKS
CHEROKEE       LGT SNOW  31  31 100 N21G33    29.53S VSB 3/4 WCI  19
DENISON        RAIN      34  34 100 NE30G39   29.44F VSB 1   WCI  20
ESTHERVILLE    FOG       28  28 100 N29G37    29.58F VSB 1/4 WCI  12
LE MARS        SNOW      30  28  93 N28G38    29.57F VSB<1/4 WCI  16
ORANGE CITY    MIX PCPN  30  30 100 N23G32    29.58F WCI  17
SHELDON        HVY RAIN  28  28 100 N33G39    29.59F VSB<1/4 WCI  12
SIOUX CITY     SNOW      29  28  96 N29G38    29.55F VSB 1/2 WCI  14
6HR MIN TEMP:  28; 6HR MAX TEMP:  33; 6HR PCP:  0.55;

SPENCER        FOG       30  29  96 N36G46    29.55F VSB 1/4 WCI  14
6HR MIN TEMP:  30; 6HR MAX TEMP:  33; 6HR PCP: TRACE;

STORM LAKE     HVY RAIN  30  30 100 N36G46    29.48F VSB 1/4 WCI  14
$$

ABBREVIATIONS USED IN REMARKS
   TC - TEMPERATURE IN CELSIUS
  WCI - WIND CHILL INDEX
   HX - HEAT INDEX
  VSB - VISIBILITY





USA.gov is the U.S. government's official web portal to all federal, state and local government web resources and services.